Location: Newark
(45.8667°N, 9.7333°E)
Time: 03:20:39
(UTC+00:00)

Transit 4A - Pass Details

Date: 01 February 2020
Orbit: 872 x 973 km, 66.8° (Epoch: 16 February)

Event Time Altitude Azimuth Distance (km) Brightness Sun altitude
Rises 05:22:33 0° 234° (SW) 3,533 - -14.3°
Reaches altitude 10° 05:25:13 10° 242° (WSW) 2,579 - -13.9°
Exits shadow 05:25:29 11° 243° (WSW) 2,491 9.7 -13.8°
Maximum altitude 05:30:51 42° 312° (NW) 1,251 8.2 -12.9°
Drops below altitude 10° 05:36:25 10° 23° (NNE) 2,542 10.3 -12.0°
Sets 05:39:02 0° 30° (NNE) 3,477 11.1 -11.5°
